Simultaneous Nadir Overpasses (SNOs) Predictions

Prediction of SNOs between NOAA-20 and METOP-B Satellite Orbit:

Table of predicted SNOs for the next 14.0 days since TLE Epoch: 3/26/2022
Index Date (NOAA-20) Time (NOAA-20) Lat,Lon (NOAA-20) SZA (NOAA-20 ) Date (METOP-B) Time (METOP-B) Lat,Lon (METOP-B) SZA (METOP-B ) Distance(km) Time Diff (sec)
1 04/07/2022 07:56:26 73.56, 50.97 66.90 04/07/2022 07:57:31 73.49, 54.08 66.67 98.26 65
2 04/07/2022 08:47:08 -73.45,-141.46 113.24 04/07/2022 08:48:15 -73.39,-138.83 113.44 83.67 67
3 04/07/2022 09:37:49 73.22, 26.39 66.49 04/07/2022 09:38:59 73.17, 28.02 66.35 52.83 70
4 04/07/2022 10:28:32 -73.16,-166.17 113.59 04/07/2022 10:29:43 -73.07,-164.88 113.76 42.81 71
5 04/07/2022 11:19:13 72.92, 1.66 66.14 04/07/2022 11:20:26 72.90, 2.09 66.08 14.33 73
6 04/07/2022 12:09:56 -72.86, 169.10 113.95 04/07/2022 12:11:09 -72.85, 169.31 113.98 6.98 73
7 04/07/2022 13:00:40 72.77, -23.40 65.95 04/07/2022 13:01:50 72.78, -23.50 65.94 3.46 70
8 04/07/2022 13:51:25 -72.81, 143.83 114.03 04/07/2022 13:52:32 -72.78, 143.83 114.07 3.73 67
9 04/07/2022 14:42:10 72.77, -48.78 65.92 04/07/2022 14:43:12 72.76, -48.88 65.90 3.71 62
10 04/07/2022 15:32:55 -72.81, 118.45 114.05 04/07/2022 15:33:53 -72.81, 118.55 114.07 3.32 58
11 04/07/2022 16:23:40 72.77, -74.16 65.90 04/07/2022 16:24:33 72.79, -74.16 65.90 1.62 53
12 04/07/2022 17:14:24 -72.76, 93.18 114.13 04/07/2022 17:15:15 -72.79, 93.17 114.12 2.54 51
13 04/07/2022 18:05:10 72.78, -99.54 65.87 04/07/2022 18:05:55 72.77, -99.54 65.86 0.89 45
14 04/07/2022 18:55:54 -72.77, 67.80 114.15 04/07/2022 18:56:37 -72.77, 67.79 114.16 0.33 43
15 04/07/2022 19:46:40 72.78,-124.92 65.85 04/07/2022 19:47:17 72.75,-124.92 65.81 3.40 37
16 04/07/2022 20:37:24 -72.77, 42.42 114.18 04/07/2022 20:37:59 -72.75, 42.40 114.21 2.49 35
17 04/07/2022 21:28:10 72.78,-150.30 65.83 04/07/2022 21:28:38 72.78,-150.20 65.81 3.34 28
18 04/07/2022 22:18:54 -72.77, 17.04 114.20 04/07/2022 22:19:20 -72.78, 17.13 114.21 3.10 26
19 04/07/2022 23:09:39 72.73,-175.57 65.75 04/07/2022 23:10:00 72.76,-175.58 65.77 2.88 21
20 04/08/2022 00:00:24 -72.77, -8.34 114.23 04/08/2022 00:00:42 -72.76, -8.25 114.25 3.48 18
21 04/08/2022 00:51:09 72.74, 159.05 65.72 04/08/2022 00:51:22 72.74, 159.04 65.72 0.45 13
22 04/08/2022 01:41:53 -72.73, -33.62 114.30 04/08/2022 01:42:04 -72.74, -33.63 114.29 1.41 11
23 04/08/2022 02:32:39 72.74, 133.67 65.70 04/08/2022 02:32:44 72.72, 133.66 65.68 2.18 5
24 04/08/2022 03:23:23 -72.73, -59.00 114.33 04/08/2022 03:23:26 -72.72, -59.02 114.34 1.34 3
25 04/08/2022 04:14:09 72.74, 108.29 65.67 04/08/2022 04:14:05 72.75, 108.38 65.68 3.24 4
26 04/08/2022 05:04:53 -72.73, -84.38 114.35 04/08/2022 05:04:47 -72.75, -84.29 114.34 3.40 6
27 04/08/2022 05:55:39 72.74, 82.91 65.65 04/08/2022 05:55:27 72.73, 83.00 65.64 3.39 12
28 04/08/2022 06:46:23 -72.73,-109.76 114.38 04/08/2022 06:46:09 -72.73,-109.67 114.38 2.80 14
29 04/08/2022 07:37:08 72.69, 57.64 65.57 04/08/2022 07:36:49 72.71, 57.62 65.59 1.68 19
30 04/08/2022 08:27:52 -72.69,-135.03 114.46 04/08/2022 08:27:31 -72.71,-135.05 114.43 2.67 21
31 04/08/2022 09:18:38 72.70, 32.26 65.55 04/08/2022 09:18:11 72.69, 32.24 65.55 1.06 27
32 04/08/2022 10:09:22 -72.69,-160.41 114.48 04/08/2022 10:08:53 -72.69,-160.43 114.47 0.81 29
33 04/08/2022 11:00:08 72.70, 6.88 65.52 04/08/2022 10:59:33 72.67, 6.86 65.50 3.47 35
34 04/08/2022 11:50:52 -72.69, 174.21 114.50 04/08/2022 11:50:15 -72.67, 174.18 114.52 2.59 37
35 04/08/2022 12:41:37 72.70, -18.50 65.50 04/08/2022 12:40:53 72.70, -18.42 65.50 2.83 44
36 04/08/2022 13:32:21 -72.69, 148.83 114.53 04/08/2022 13:31:35 -72.70, 148.91 114.52 2.63 46
37 04/08/2022 14:23:06 72.65, -43.78 65.42 04/08/2022 14:22:15 72.68, -43.80 65.46 2.93 51
38 04/08/2022 15:13:51 -72.70, 123.45 114.55 04/08/2022 15:12:57 -72.68, 123.53 114.56 3.08 54
39 04/08/2022 16:04:36 72.66, -69.16 65.40 04/08/2022 16:03:37 72.66, -69.18 65.41 0.81 59
40 04/08/2022 16:55:20 -72.65, 98.18 114.63 04/08/2022 16:54:19 -72.66, 98.15 114.60 1.65 61
41 04/08/2022 17:46:06 72.66, -94.54 65.37 04/08/2022 17:44:59 72.64, -94.56 65.37 2.32 67
42 04/08/2022 18:36:50 -72.65, 72.80 114.65 04/08/2022 18:35:41 -72.64, 72.76 114.65 1.58 69
43 04/08/2022 19:27:35 72.61,-119.81 65.30 04/08/2022 19:26:21 72.62,-119.94 65.33 4.39 74
44 04/08/2022 20:18:18 -72.55, 47.62 114.79 04/08/2022 20:17:04 -72.57, 47.28 114.74 11.58 74
45 04/08/2022 21:08:59 72.31,-144.58 64.94 04/08/2022 21:07:48 72.34,-145.83 65.05 42.57 71
46 04/08/2022 21:59:42 -72.25, 22.85 115.14 04/08/2022 21:58:32 -72.24, 21.29 115.05 52.81 70
47 04/08/2022 22:50:23 72.00,-169.36 64.59 04/08/2022 22:49:16 72.01,-171.81 64.74 83.96 67
48 04/08/2022 23:41:06 -71.95, -1.94 115.49 04/08/2022 23:39:59 -71.97, -4.57 115.32 90.80 67



Historial Predications of SNOs between NOAA-20 and METOP-B
